N0JVW-13 Weather Reports


time (UTC)temp
F
wind
direction
speed
knots
gust
knots
rain 1hr
in
rain 24hr
in
rain mn
in
humidity
%
barometer
mb
20260508220542 62 335 2.6 7.8 0.00 0.00 0.00 71 1006.9
20260508220024 62 2 1.7 5.2 0.00 0.00 0.00 73 1007.0
20260508215558 63 23 0.9 3.5 0.00 0.00 0.00 75 1007.1
20260508215034 63 342 0.9 4.3 0.00 0.00 0.00 75 1007.1
20260508214523 64 354 0.0 4.3 0.00 0.00 0.00 75 1007.2
20260508214050 64 9 0.0 1.7 0.00 0.00 0.00 75 1007.2
20260508213526 65 24 0.0 2.6 0.00 0.00 0.00 75 1007.3
20260508213002 65 24 0.0 2.6 0.00 0.00 0.00 74 1007.3
20260508212543 65 5 0.0 1.7 0.00 0.00 0.00 74 1007.5
20260508212018 65 337 0.0 1.7 0.00 0.00 0.00 72 1007.5
20260508211600 66 339 0.0 1.7 0.00 0.00 0.00 72 1007.6
20260508211039 66 339 0.0 0.9 0.00 0.00 0.00 72 1007.7
20260508210513 66 30 0.0 0.9 0.00 0.00 0.00 72 1007.6
20260508210055 66 30 0.0 3.5 0.00 0.00 0.00 72 1007.3
20260508205529 67 30 1.7 3.5 0.00 0.00 0.00 71 1007.0
20260508205005 67 8 0.0 1.7 0.00 0.00 0.00 72 1007.2
20260508204552 67 8 0.0 3.5 0.00 0.00 0.00 72 1007.4
20260508204021 67 152 0.0 0.9 0.00 0.00 0.00 72 1007.5
20260508203603 66 152 0.0 0.9 0.00 0.00 0.00 74 1007.7
20260508203040 66 152 0.0 0.0 0.00 0.00 0.00 74 1008.1
20260508202514 66 152 0.0 0.0 0.00 0.00 0.00 74 1007.9
20260508202059 66 152 0.0 0.0 0.00 0.00 0.00 74 1007.6
20260508201536 66 152 0.0 0.0 0.00 0.00 0.00 74 1007.8
20260508201013 66 152 0.0 0.0 0.00 0.00 0.00 73 1007.8
20260508200551 66 152 0.0 0.0 0.00 0.00 0.00 73 1007.6
20260508200026 66 152 0.0 0.0 0.00 0.00 0.00 72 1007.4
20260508195605 66 152 0.0 0.0 0.00 0.00 0.00 73 1007.4
20260508195041 66 152 0.0 0.0 0.00 0.00 0.00 73 1007.7
20260508194528 66 152 0.0 0.0 0.00 0.00 0.00 74 1007.9
20260508194057 66 152 0.0 0.0 0.00 0.00 0.00 74 1007.9
20260508193534 65 152 0.0 0.0 0.00 0.00 0.00 74 1008.1
20260508193010 65 105 0.0 0.0 0.00 0.00 0.00 73 1008.1
20260508192551 65 105 0.0 0.0 0.00 0.00 0.00 74 1008.0
20260508192027 65 105 0.0 0.0 0.00 0.00 0.00 72 1007.7
20260508191503 66 105 0.0 0.0 0.00 0.00 0.00 71 1007.9
20260508191042 66 105 0.0 0.0 0.00 0.00 0.00 71 1008.1
20260508190519 66 105 0.0 0.0 0.00 0.00 0.00 70 1008.2
20260508190059 66 105 0.0 0.0 0.00 0.00 0.00 69 1008.3
20260508185535 66 105 0.0 0.0 0.00 0.00 0.00 72 1008.4
20260508185017 66 105 0.0 0.0 0.00 0.00 0.00 72 1008.3
20260508184604 65 105 0.0 1.7 0.00 0.00 0.00 71 1008.3
20260508184028 65 105 0.0 1.7 0.00 0.00 0.00 70 1008.4
20260508183508 65 254 0.0 0.0 0.00 0.00 0.00 70 1008.5
20260508183106 65 259 0.0 0.9 0.00 0.00 0.00 71 1008.5
20260508182523 65 259 0.0 0.9 0.00 0.00 0.00 70 1008.6
20260508182102 65 226 0.0 0.9 0.00 0.00 0.00 71 1008.7
20260508181546 65 162 0.0 0.9 0.00 0.00 0.00 73 1008.7
20260508181017 65 133 0.0 2.6 0.00 0.00 0.00 72 1008.7
20260508180554 65 133 0.0 2.6 0.00 0.00 0.00 71 1008.7
20260508180033 64 216 0.0 1.7 0.00 0.00 0.00 72 1008.9
20260508175504 64 133 0.0 1.7 0.00 0.00 0.00 73 1008.9
20260508175045 64 133 0.0 1.7 0.00 0.00 0.00 74 1008.7
20260508174521 63 163 0.0 2.6 0.00 0.00 0.00 73 1008.3
20260508174101 63 160 0.0 1.7 0.00 0.00 0.00 74 1008.4
20260508173536 63 160 0.0 1.7 0.00 0.00 0.00 73 1008.5
20260508173016 63 165 0.0 1.7 0.00 0.00 0.00 73 1008.7
20260508172555 63 165 0.0 2.6 0.00 0.00 0.00 72 1008.9
20260508172029 63 167 0.0 1.7 0.00 0.00 0.00 73 1009.0
20260508171506 63 139 0.0 0.0 0.00 0.00 0.00 73 1009.2
20260508171046 63 139 0.0 0.9 0.00 0.00 0.00 72 1009.2
20260508170522 63 139 0.0 0.9 0.00 0.00 0.00 73 1009.1
20260508165538 63 172 0.0 0.0 0.00 0.00 0.00 71 1009.4
20260508165014 63 172 0.0 1.7 0.00 0.00 0.00 70 1009.6
20260508164559 64 172 0.0 1.7 0.00 0.00 0.00 70 1009.4
20260508164031 64 153 0.0 1.7 0.00 0.00 0.00 70 1009.3
20260508163508 64 170 0.0 1.7 0.00 0.00 0.00 70 1009.2
20260508163048 64 198 0.0 1.7 0.00 0.00 0.00 70 1009.2
20260508162525 63 144 0.0 2.6 0.00 0.00 0.00 72 1009.2
20260508162003 63 160 0.0 2.6 0.00 0.00 0.00 71 1009.0
20260508161542 63 143 0.0 2.6 0.00 0.00 0.00 70 1009.1
20260508161018 63 163 0.0 0.9 0.00 0.00 0.00 71 1009.2
20260508160559 63 149 0.0 0.9 0.00 0.00 0.00 71 1009.3
20260508160036 63 139 0.0 0.0 0.00 0.00 0.00 71 1009.3
20260508155511 63 162 0.0 1.7 0.00 0.00 0.00 70 1009.2
20260508155055 63 162 0.0 2.6 0.00 0.00 0.00 70 1009.3
20260508154542 63 149 0.0 2.6 0.00 0.00 0.00 71 1009.5
20260508154003 63 150 0.0 1.7 0.00 0.00 0.00 70 1009.5
20260508153545 62 155 0.0 1.7 0.00 0.00 0.00 71 1009.5
20260508153020 62 281 0.0 1.7 0.00 0.00 0.00 72 1009.6
20260508152600 61 281 0.0 1.7 0.00 0.00 0.00 70 1009.6
20260508152036 61 148 0.0 2.6 0.00 0.00 0.00 74 1009.7
20260508151515 60 148 0.0 2.6 0.00 0.00 0.00 73 1009.7
20260508151054 60 155 0.0 0.9 0.00 0.00 0.00 73 1009.8
20260508150531 60 155 0.0 0.9 0.00 0.00 0.00 74 1009.8
20260508150006 59 155 0.0 0.0 0.00 0.00 0.00 74 1009.8
20260508145547 59 155 0.0 0.0 0.00 0.00 0.00 74 1009.9
20260508145023 59 155 0.0 0.9 0.00 0.00 0.00 74 1009.8
20260508144610 59 155 0.0 0.9 0.00 0.00 0.00 73 1009.8
20260508144040 59 155 0.0 0.9 0.00 0.00 0.00 73 1009.7
20260508143517 59 136 0.0 2.6 0.00 0.00 0.00 73 1009.6
20260508143105 59 136 0.0 3.5 0.00 0.00 0.00 73 1009.6
20260508142534 59 156 0.9 3.5 0.00 0.00 0.00 73 1009.6
20260508142010 59 160 0.0 2.6 0.00 0.00 0.00 74 1009.7
20260508141558 58 160 0.0 2.6 0.00 0.00 0.00 74 1009.6
20260508141028 58 155 0.0 1.7 0.00 0.00 0.00 74 1009.7
20260508140505 58 155 0.0 2.6 0.00 0.00 0.00 74 1009.7
20260508140045 58 158 0.0 2.6 0.00 0.00 0.00 73 1009.7
20260508135521 58 160 0.0 1.7 0.00 0.00 0.00 73 1009.8
20260508135101 58 155 0.0 0.9 0.00 0.00 0.00 73 1009.8
20260508134553 58 163 0.0 0.9 0.00 0.00 0.00 74 1009.8
20260508134014 58 162 0.0 0.0 0.00 0.00 0.00 74 1009.9
20260508133555 58 162 0.0 0.0 0.00 0.00 0.00 74 1010.0
20260508133045 58 162 0.0 0.9 0.00 0.00 0.00 74 1010.0
20260508132506 58 162 0.0 0.9 0.00 0.00 0.00 74 1009.8
20260508132047 58 156 0.0 0.0 0.00 0.00 0.00 74 1010.0
20260508131523 58 156 0.0 0.9 0.00 0.00 0.00 74 1010.0
20260508131105 58 156 0.0 0.9 0.00 0.00 0.00 74 1010.0
20260508130540 57 156 0.0 0.9 0.00 0.00 0.00 74 1010.0
20260508130016 57 96 0.0 0.9 0.00 0.00 0.00 74 1010.0
20260508125556 57 96 0.0 0.9 0.00 0.00 0.00 73 1010.0
20260508125034 57 95 0.0 0.9 0.00 0.00 0.00 74 1010.0
20260508124512 57 158 0.0 0.0 0.00 0.00 0.00 74 1010.0
20260508124050 57 158 0.0 0.9 0.00 0.00 0.00 74 1009.8
20260508123526 57 158 0.0 0.9 0.00 0.00 0.00 74 1009.7
20260508123002 57 141 0.0 3.5 0.00 0.00 0.00 74 1009.5
20260508122543 56 141 0.0 3.5 0.00 0.00 0.00 74 1009.4
20260508122018 56 152 0.0 1.7 0.00 0.00 0.00 75 1009.6
20260508121559 56 158 0.0 0.9 0.00 0.00 0.00 74 1009.5
20260508121035 56 158 0.0 0.9 0.00 0.00 0.00 75 1009.2
20260508120512 56 158 0.0 0.9 0.00 0.00 0.00 75 1009.2
20260508120053 56 158 0.0 1.7 0.00 0.00 0.00 74 1009.2
20260508115532 56 158 0.0 1.7 0.00 0.00 0.00 75 1009.2
20260508115003 56 158 0.0 2.6 0.00 0.00 0.00 75 1009.1
20260508114543 56 154 0.9 2.6 0.00 0.00 0.00 75 1009.0
20260508114019 56 157 0.0 1.7 0.00 0.00 0.00 75 1009.0
20260508113559 56 161 0.0 1.7 0.00 0.00 0.00 75 1009.1
20260508113038 56 161 0.0 2.6 0.00 0.00 0.00 75 1009.0
20260508112511 56 195 0.9 2.6 0.00 0.00 0.00 75 1008.9
20260508112052 56 165 0.0 1.7 0.00 0.00 0.00 75 1009.1
20260508111535 55 144 0.0 1.7 0.00 0.00 0.00 75 1008.9
20260508111005 55 158 0.0 1.7 0.00 0.00 0.00 75 1008.9
20260508110544 55 152 0.0 1.7 0.00 0.00 0.00 75 1008.8
20260508110024 55 130 0.0 1.7 0.00 0.00 0.00 75 1008.9
20260508105604 55 160 0.0 1.7 0.00 0.00 0.00 75 1008.9
20260508105037 55 148 0.0 1.7 0.00 0.00 0.00 75 1008.9
20260508104512 55 112 0.0 1.7 0.00 0.00 0.00 75 1008.9
20260508104055 55 152 0.0 1.7 0.00 0.00 0.00 75 1008.8
20260508103531 55 158 0.0 2.6 0.00 0.00 0.00 75 1008.7
20260508103008 55 134 0.0 2.6 0.00 0.00 0.00 75 1008.8
20260508102548 55 159 0.0 1.7 0.00 0.00 0.00 75 1008.7
20260508102025 55 159 0.0 1.7 0.00 0.00 0.00 75 1008.8
20260508101501 55 158 0.0 1.7 0.00 0.00 0.00 75 1008.7
20260508101042 55 148 0.0 1.7 0.00 0.00 0.00 75 1008.7
20260508100522 55 155 0.0 2.6 0.00 0.00 0.00 75 1008.7
20260508100112 55 152 0.0 2.6 0.00 0.00 0.00 75 1008.6
20260508095534 55 164 0.0 2.6 0.00 0.00 0.00 75 1008.6
20260508095010 55 158 0.0 1.7 0.00 0.00 0.00 75 1008.7
20260508094602 55 168 0.0 1.7 0.00 0.00 0.00 75 1008.7
20260508094026 55 157 0.0 1.7 0.00 0.00 0.00 75 1008.7
20260508093504 55 160 0.0 1.7 0.00 0.00 0.00 75 1008.7
20260508093044 55 169 0.0 1.7 0.00 0.00 0.00 75 1008.7
20260508092520 55 164 0.0 3.5 0.00 0.00 0.00 75 1008.8
20260508092100 55 152 0.0 3.5 0.00 0.00 0.00 75 1008.7
20260508091540 55 147 0.9 1.7 0.00 0.00 0.00 75 1008.8
20260508091017 55 155 0.0 1.7 0.00 0.00 0.00 75 1008.9
20260508090555 55 150 0.0 1.7 0.00 0.00 0.00 74 1008.9
20260508090045 55 158 0.0 1.7 0.00 0.00 0.00 74 1008.9
20260508085506 55 147 0.0 1.7 0.00 0.00 0.00 74 1008.9
20260508085050 55 163 0.0 1.7 0.00 0.00 0.00 74 1008.8
20260508084522 55 161 0.0 1.7 0.00 0.00 0.00 74 1008.9
20260508084103 55 150 0.0 1.7 0.00 0.00 0.00 74 1008.9
20260508083539 55 151 0.0 1.7 0.00 0.00 0.00 74 1009.1
20260508083014 55 152 0.0 1.7 0.00 0.00 0.00 74 1009.0
20260508082555 55 143 0.0 1.7 0.00 0.00 0.00 74 1009.1
20260508082033 55 158 0.0 1.7 0.00 0.00 0.00 74 1009.2
20260508081508 55 141 0.9 1.7 0.00 0.00 0.00 74 1009.2
20260508081048 55 158 0.0 2.6 0.00 0.00 0.00 73 1009.3
20260508080531 55 165 0.0 2.6 0.00 0.00 0.00 73 1009.4
20260508080001 55 155 0.0 2.6 0.00 0.00 0.00 73 1009.4
20260508075544 55 162 0.0 1.7 0.00 0.00 0.00 73 1009.4
20260508075017 55 160 0.0 1.7 0.00 0.00 0.00 73 1009.6
20260508074558 55 160 0.0 1.7 0.00 0.00 0.00 73 1009.6
20260508074033 55 113 0.0 1.7 0.00 0.00 0.00 73 1009.6
20260508073511 55 151 0.0 2.6 0.00 0.00 0.00 72 1009.7
20260508073106 55 159 0.9 2.6 0.00 0.00 0.00 72 1009.7
20260508072526 56 153 0.0 1.7 0.00 0.00 0.00 72 1009.9
20260508072002 56 140 0.0 1.7 0.00 0.00 0.00 71 1009.9
20260508071544 56 121 0.0 1.7 0.00 0.00 0.00 71 1010.0
20260508071018 56 172 0.0 1.7 0.00 0.00 0.00 71 1010.1
20260508070558 56 138 0.0 1.7 0.00 0.00 0.00 70 1010.2
20260508070032 56 154 0.0 2.6 0.00 0.00 0.00 70 1010.2
20260508065508 56 157 0.0 2.6 0.00 0.00 0.00 70 1010.2
20260508065048 57 165 0.0 2.6 0.00 0.00 0.00 69 1010.3
20260508064524 57 161 0.0 2.6 0.00 0.00 0.00 69 1010.3
20260508064104 57 152 0.0 2.6 0.00 0.00 0.00 69 1010.4
20260508063541 57 167 0.0 2.6 0.00 0.00 0.00 69 1010.4
20260508063016 57 157 0.0 3.5 0.00 0.00 0.00 69 1010.4
20260508062557 57 126 0.9 3.5 0.00 0.00 0.00 69 1010.4
20260508062033 57 110 0.0 2.6 0.00 0.00 0.00 68 1010.5
20260508061509 57 158 0.0 2.6 0.00 0.00 0.00 68 1010.5
20260508061050 58 162 0.0 1.7 0.00 0.00 0.00 68 1010.5
20260508060527 58 162 0.0 2.6 0.00 0.00 0.00 67 1010.6
20260508060002 58 156 0.9 2.6 0.00 0.00 0.00 67 1010.5
20260508055543 58 163 0.0 1.7 0.00 0.00 0.00 67 1010.5
20260508055018 58 129 0.0 2.6 0.00 0.00 0.00 66 1010.6
20260508054600 58 159 0.0 3.5 0.00 0.00 0.00 66 1010.6
20260508054035 58 161 0.9 3.5 0.00 0.00 0.00 66 1010.5
20260508053510 58 161 0.0 2.6 0.00 0.00 0.00 66 1010.5
20260508053055 59 157 0.0 1.7 0.00 0.00 0.00 66 1010.5
20260508052530 59 154 0.0 2.6 0.00 0.00 0.00 66 1010.5
20260508052003 59 155 0.0 2.6 0.00 0.00 0.00 65 1010.6
20260508051602 59 161 0.0 1.7 0.00 0.00 0.00 65 1010.5
20260508051028 59 150 0.0 2.6 0.00 0.00 0.00 65 1010.6
20260508050600 59 131 0.0 2.6 0.00 0.00 0.00 65 1010.7
20260508050034 59 149 0.0 2.6 0.00 0.00 0.00 65 1010.7
20260508045510 59 148 0.0 2.6 0.00 0.00 0.00 65 1010.8
20260508045050 59 160 0.0 2.6 0.00 0.00 0.00 65 1010.7
20260508044527 59 162 0.0 3.5 0.00 0.00 0.00 64 1010.9
20260508044003 59 155 0.9 3.5 0.00 0.00 0.00 64 1010.9
20260508043543 59 113 0.0 3.5 0.00 0.00 0.00 64 1010.9
20260508043020 59 156 0.0 1.7 0.00 0.00 0.00 64 1010.9
20260508042601 60 146 0.0 4.3 0.00 0.00 0.00 64 1010.9
20260508042037 60 163 0.9 4.3 0.00 0.00 0.00 63 1010.9
20260508041514 60 162 0.9 3.5 0.00 0.00 0.00 63 1010.9
20260508041054 60 173 0.9 3.5 0.00 0.00 0.00 63 1011.0
20260508040531 60 160 0.9 2.6 0.00 0.00 0.00 63 1011.0
20260508040006 60 139 0.0 2.6 0.00 0.00 0.00 62 1010.9
20260508035547 60 146 0.0 2.6 0.00 0.00 0.00 62 1010.9
20260508035021 60 162 0.0 2.6 0.00 0.00 0.00 62 1010.9
20260508034601 60 153 0.0 2.6 0.00 0.00 0.00 62 1010.9
20260508034035 60 165 0.0 3.5 0.00 0.00 0.00 62 1010.9
20260508033503 60 170 0.0 2.6 0.00 0.00 0.00 62 1010.9
20260508033047 60 134 0.0 2.6 0.00 0.00 0.00 62 1010.9
20260508032524 61 168 0.0 2.6 0.00 0.00 0.00 62 1010.9
20260508032103 61 125 0.0 4.3 0.00 0.00 0.00 62 1010.9
20260508031541 60 147 0.9 4.3 0.00 0.00 0.00 62 1010.8
20260508031014 60 151 0.9 3.5 0.00 0.00 0.00 63 1010.9
20260508030553 60 167 0.0 2.6 0.00 0.00 0.00 63 1010.8
20260508030029 60 155 0.0 1.7 0.00 0.00 0.00 63 1010.7
20260508025505 60 167 0.9 3.5 0.00 0.00 0.00 63 1010.6
20260508025045 60 150 0.9 3.5 0.00 0.00 0.00 63 1010.6
20260508024546 60 161 0.0 1.7 0.00 0.00 0.00 64 1010.6
20260508024103 60 144 0.0 1.7 0.00 0.00 0.00 64 1010.5
20260508023539 60 135 0.0 1.7 0.00 0.00 0.00 63 1010.5
20260508023016 61 150 0.0 1.7 0.00 0.00 0.00 63 1010.4
20260508022601 61 158 0.0 1.7 0.00 0.00 0.00 62 1010.4
20260508022034 61 151 0.0 1.7 0.00 0.00 0.00 62 1010.3
20260508021509 61 161 0.0 1.7 0.00 0.00 0.00 62 1010.3
20260508021051 61 170 0.0 1.7 0.00 0.00 0.00 62 1010.3
20260508020527 61 145 0.0 1.7 0.00 0.00 0.00 61 1010.3
20260508020004 61 146 0.0 1.7 0.00 0.00 0.00 61 1010.2
20260508015543 62 149 0.0 0.9 0.00 0.00 0.00 61 1010.2
20260508015027 62 148 0.0 0.9 0.00 0.00 0.00 60 1010.2
20260508014504 62 156 0.0 0.9 0.00 0.00 0.00 59 1010.2
20260508014043 62 151 0.0 0.9 0.00 0.00 0.00 59 1010.2
20260508013523 63 138 0.0 0.9 0.00 0.00 0.00 58 1010.2
20260508013101 63 150 0.0 0.9 0.00 0.00 0.00 57 1010.1
20260508012537 63 153 0.0 0.9 0.00 0.00 0.00 57 1010.1
20260508012014 63 153 0.0 0.9 0.00 0.00 0.00 56 1010.1
20260508011605 63 156 0.0 0.9 0.00 0.00 0.00 56 1010.1
20260508011031 64 153 0.0 0.9 0.00 0.00 0.00 55 1010.0
20260508010508 64 148 0.0 0.9 0.00 0.00 0.00 55 1010.1
20260508010053 64 152 0.0 0.9 0.00 0.00 0.00 54 1010.1
20260508005524 64 148 0.0 0.9 0.00 0.00 0.00 54 1010.1
20260508005105 65 148 0.0 1.7 0.00 0.00 0.00 53 1010.1
20260508004550 65 148 0.0 1.7 0.00 0.00 0.00 53 1010.1
20260508004017 65 166 0.0 0.9 0.00 0.00 0.00 52 1010.2
20260508003558 65 136 0.0 1.7 0.00 0.00 0.00 52 1010.3
20260508003035 65 136 0.0 1.7 0.00 0.00 0.00 51 1010.2
20260508002510 66 138 0.0 1.7 0.00 0.00 0.00 50 1010.3
20260508002051 66 165 0.0 1.7 0.00 0.00 0.00 51 1010.3
20260508001536 66 165 0.0 1.7 0.00 0.00 0.00 49 1010.4
20260508001002 67 165 0.0 1.7 0.00 0.00 0.00 49 1010.4
20260508000542 67 159 0.0 2.6 0.00 0.00 0.00 48 1010.4
20260508000019 67 158 0.9 2.6 0.00 0.00 0.00 47 1010.5
20260507235600 67 259 0.0 3.5 0.00 0.00 0.00 47 1010.5
20260507235036 67 283 0.0 3.5 0.00 0.00 0.00 47 1010.6
20260507234513 67 168 0.0 2.6 0.00 0.00 0.00 48 1010.5
20260507234053 67 255 0.0 2.6 0.00 0.00 0.00 46 1010.5
20260507233529 67 200 0.0 1.7 0.00 0.00 0.00 48 1010.5
20260507233006 67 159 0.0 1.7 0.00 0.00 0.00 48 1010.5
20260507232547 67 300 0.0 1.7 0.00 0.00 0.00 49 1010.5
20260507232023 67 302 0.0 0.9 0.00 0.00 0.00 49 1010.5
20260507231606 67 302 0.0 0.9 0.00 0.00 0.00 48 1010.6
20260507231038 67 126 0.0 1.7 0.00 0.00 0.00 50 1010.7
20260507230511 67 156 0.0 3.5 0.00 0.00 0.00 48 1010.7
20260507230107 67 216 0.9 3.5 0.00 0.00 0.00 48 1010.7
20260507225528 67 157 0.0 5.2 0.00 0.00 0.00 50 1010.8
20260507225006 67 291 1.7 5.2 0.00 0.00 0.00 48 1010.7
20260507224551 67 166 0.0 2.6 0.00 0.00 0.00 49 1010.8
20260507224022 67 149 0.0 2.6 0.00 0.00 0.00 47 1010.8
20260507223603 67 295 0.0 1.7 0.00 0.00 0.00 48 1010.8
20260507223039 67 176 0.0 2.6 0.00 0.00 0.00 50 1010.8
20260507222519 67 176 0.0 3.5 0.00 0.00 0.00 47 1010.9
20260507222058 67 153 0.0 3.5 0.00 0.00 0.00 50 1010.9
20260507221539 67 142 0.0 2.6 0.00 0.00 0.00 49 1010.9
20260507221008 67 181 0.9 2.6 0.00 0.00 0.00 48 1011.0